Regional Weather Roundup
Issued by NWS

Home | Current Version | Previous Version | Graphics & Text | Print | Product List | Glossary On
Versions: 1 2 3 4 5 6 7 8 9 10 11 12 13 14 15 16 17 18 19 20 21 22 23 24 25 26 27 28 29 30 31 32 33 34 35 36 37 38 39 40 41 42 43 44 45 46 47 48 49 50
000
ASUS44 KMEG 251300
RWRTN
TENNESSEE HOURLY STATE WEATHER ROUNDUP
NATIONAL WEATHER SERVICE MEMPHIS TN
800 AM CDT WED APR 25 2018

TNZ002-004-019-021-049-052-054-088>092-251400-
WEST TENNESSEE

CITY           SKY/WX    TMP DP  RH WIND       PRES   REMARKS
MEMPHIS INTL   FAIR      59  58  96 CALM      30.04R
NWS MEMPHIS      N/A     54 N/A N/A MISG        N/A
JACKSON        FAIR      57  56  96 W3        30.03R
DYERSBURG      FAIR      56  56 100 SW6       30.03R
$$

TNZ008-025-027-028-033-062-065-066-251400-
NORTH MIDDLE TENNESSEE

CITY           SKY/WX    TMP DP  RH WIND       PRES   REMARKS
NASHVILLE      FAIR      58  52  80 NW9G17    30.01R
CLARKSVILLE    FAIR      56  52  86 CALM      30.01S FOG
SMYRNA         CLOUDY    57  53  86 NW9       30.01S
CROSSVILLE     CLOUDY    52  50  93 NW8       29.96S
$$

TNZ061-075-076-078-094-096-097-251400-
SOUTH MIDDLE TENNESSEE

CITY           SKY/WX    TMP DP  RH WIND       PRES   REMARKS
$$

TNZ017-018-042-046-047-251400-
NORTHEAST TENNESSEE

CITY           SKY/WX    TMP DP  RH WIND       PRES   REMARKS
TRI CITIES     PTSUNNY   57  53  86 W7        29.88R
$$

TNZ012-013-036-069-073-074-251400-
CENTRAL EAST TENNESSEE

CITY           SKY/WX    TMP DP  RH WIND       PRES   REMARKS
KNOXVILLE      LGT RAIN  55  54  96 W5        29.92R
OAK RIDGE      LGT RAIN  57  54  89 W5        29.94R
$$

TNZ083-085-099-251400-
SOUTHEAST TENNESSEE

CITY           SKY/WX    TMP DP  RH WIND       PRES   REMARKS
CHATTANOOGA    PTSUNNY   59  49  69 NW7       29.95R
$$

SKY/WX REPORTED AS FAIR MEANS FEW OR NO CLOUDS BELOW
12 THOUSAND FEET.





USA.gov is the U.S. government's official web portal to all federal, state and local government web resources and services.